| time (UTC) | temp F | wind direction | speed MPH | gust MPH | rain 1hr in | rain 24hr in | rain mn in | humidity % | barometer mb |
| 20260510200005 | 56 | 326 | 0.0 | 0.0 | 0.00 | 0.86 | 0.86 | 94 | 1014.2 |
| 20260510194535 | 56 | 326 | 0.0 | 0.0 | 0.00 | 0.86 | 0.86 | 94 | 1014.2 |
| 20260510193108 | 56 | 327 | 0.0 | 0.0 | 0.00 | 0.86 | 0.86 | 94 | 1014.3 |
| 20260510191513 | 56 | 305 | 0.0 | 0.0 | 0.00 | 0.86 | 0.86 | 93 | 1014.3 |
| 20260510190030 | 57 | 305 | 0.0 | 0.0 | 0.00 | 0.86 | 0.86 | 93 | 1014.3 |
| 20260510184543 | 57 | 305 | 0.0 | 0.0 | 0.00 | 0.86 | 0.86 | 93 | 1014.0 |
| 20260510183009 | 57 | 305 | 0.0 | 0.0 | 0.00 | 0.86 | 0.86 | 93 | 1013.9 |
| 20260510181543 | 57 | 305 | 0.0 | 0.0 | 0.00 | 0.86 | 0.86 | 93 | 1013.9 |
| 20260510180105 | 58 | 305 | 0.0 | 0.0 | 0.00 | 0.86 | 0.86 | 93 | 1013.8 |
| 20260510174518 | 58 | 305 | 0.0 | 0.0 | 0.00 | 0.86 | 0.86 | 93 | 1013.9 |
| 20260510173048 | 58 | 305 | 0.0 | 0.0 | 0.00 | 0.86 | 0.86 | 92 | 1013.9 |
| 20260510171516 | 58 | 305 | 0.0 | 0.0 | 0.00 | 0.86 | 0.86 | 93 | 1013.9 |
| 20260510170031 | 58 | 305 | 0.0 | 0.0 | 0.00 | 0.86 | 0.86 | 93 | 1013.9 |
| 20260510164606 | 58 | 305 | 0.0 | 0.0 | 0.01 | 0.86 | 0.86 | 92 | 1013.8 |
| 20260510163025 | 58 | 305 | 0.0 | 0.0 | 0.01 | 0.86 | 0.86 | 92 | 1013.9 |
| 20260510161538 | 58 | 305 | 0.0 | 0.0 | 0.01 | 0.86 | 0.86 | 92 | 1014.1 |
| 20260510160055 | 58 | 305 | 0.0 | 0.0 | 0.01 | 0.86 | 0.86 | 93 | 1014.2 |
| 20260510154538 | 58 | 305 | 0.0 | 0.0 | 0.01 | 0.85 | 0.85 | 94 | 1014.4 |
| 20260510153034 | 58 | 305 | 0.0 | 0.0 | 0.01 | 0.85 | 0.85 | 93 | 1014.4 |
| 20260510151613 | 58 | 305 | 0.0 | 0.0 | 0.01 | 0.85 | 0.85 | 93 | 1014.5 |
| 20260510150110 | 58 | 305 | 0.0 | 0.0 | 0.00 | 0.84 | 0.84 | 93 | 1014.6 |
| 20260510144530 | 58 | 305 | 0.0 | 0.0 | 0.00 | 0.84 | 0.84 | 93 | 1014.7 |
| 20260510143053 | 58 | 302 | 0.0 | 0.0 | 0.00 | 0.84 | 0.84 | 93 | 1014.6 |
| 20260510141556 | 58 | 302 | 0.0 | 0.0 | 0.00 | 0.84 | 0.84 | 93 | 1014.6 |
| 20260510140057 | 58 | 302 | 0.0 | 0.0 | 0.00 | 0.84 | 0.84 | 94 | 1014.7 |
| 20260510134520 | 58 | 308 | 0.0 | 0.0 | 0.00 | 0.84 | 0.84 | 93 | 1014.9 |
| 20260510133030 | 58 | 296 | 0.0 | 1.0 | 0.00 | 0.84 | 0.84 | 94 | 1015.1 |
| 20260510131559 | 58 | 293 | 0.0 | 0.0 | 0.00 | 0.84 | 0.84 | 94 | 1015.1 |
| 20260510130013 | 58 | 8 | 0.0 | 2.0 | 0.01 | 0.84 | 0.84 | 94 | 1015.3 |
| 20260510124527 | 58 | 302 | 0.0 | 0.0 | 0.02 | 0.84 | 0.84 | 94 | 1015.5 |
| 20260510123057 | 58 | 308 | 0.0 | 4.0 | 0.02 | 0.84 | 0.84 | 94 | 1015.6 |
| 20260510121518 | 58 | 306 | 0.0 | 3.0 | 0.02 | 0.84 | 0.84 | 94 | 1015.7 |
| 20260510120100 | 58 | 31 | 0.0 | 1.0 | 0.01 | 0.83 | 0.83 | 94 | 1015.7 |
| 20260510114528 | 58 | 3 | 0.0 | 1.0 | 0.00 | 0.82 | 0.82 | 94 | 1015.8 |
| 20260510113115 | 58 | 307 | 0.0 | 2.0 | 0.01 | 0.82 | 0.82 | 94 | 1015.8 |
| 20260510111526 | 58 | 302 | 0.0 | 0.0 | 0.02 | 0.82 | 0.82 | 94 | 1016.0 |
| 20260510110002 | 57 | 298 | 0.0 | 0.0 | 0.03 | 0.82 | 0.82 | 94 | 1016.2 |
| 20260510104606 | 57 | 298 | 0.0 | 1.0 | 0.04 | 0.82 | 0.82 | 94 | 1016.3 |
| 20260510103029 | 57 | 303 | 0.0 | 0.0 | 0.04 | 0.81 | 0.81 | 94 | 1016.5 |
| 20260510101559 | 57 | 288 | 0.0 | 0.0 | 0.06 | 0.80 | 0.80 | 94 | 1016.5 |
| 20260510100009 | 57 | 285 | 0.0 | 0.0 | 0.09 | 0.79 | 0.79 | 94 | 1016.4 |
| 20260510094539 | 57 | 285 | 0.0 | 0.0 | 0.12 | 0.78 | 0.78 | 94 | 1016.5 |
| 20260510093006 | 57 | 285 | 0.0 | 0.0 | 0.14 | 0.77 | 0.77 | 93 | 1016.6 |
| 20260510091537 | 57 | 285 | 0.0 | 0.0 | 0.14 | 0.74 | 0.74 | 93 | 1016.6 |
| 20260510090034 | 57 | 285 | 0.0 | 0.0 | 0.12 | 0.70 | 0.70 | 93 | 1016.5 |
| 20260510084540 | 57 | 285 | 0.0 | 0.0 | 0.08 | 0.65 | 0.65 | 93 | 1016.6 |
| 20260510083104 | 57 | 284 | 0.0 | 0.0 | 0.07 | 0.63 | 0.63 | 92 | 1016.5 |
| 20260510081527 | 57 | 284 | 0.0 | 0.0 | 0.05 | 0.60 | 0.60 | 92 | 1016.4 |
| 20260510080006 | 57 | 285 | 0.0 | 0.0 | 0.03 | 0.57 | 0.57 | 91 | 1016.3 |
| 20260510074514 | 57 | 13 | 0.0 | 2.0 | 0.02 | 0.56 | 0.56 | 91 | 1016.3 |
| 20260510073056 | 57 | 53 | 0.0 | 2.0 | 0.02 | 0.56 | 0.56 | 91 | 1016.1 |
| 20260510071505 | 56 | 42 | 0.0 | 4.0 | 0.02 | 0.55 | 0.55 | 92 | 1016.2 |
| 20260510070019 | 56 | 8 | 0.0 | 1.0 | 0.05 | 0.55 | 0.55 | 92 | 1016.1 |
| 20260510064532 | 56 | 357 | 0.0 | 1.0 | 0.09 | 0.55 | 0.55 | 92 | 1016.1 |
| 20260510063027 | 56 | 287 | 0.0 | 9.0 | 0.17 | 0.54 | 0.54 | 92 | 1015.9 |
| 20260510061547 | 56 | 8 | 0.0 | 4.0 | 0.28 | 0.53 | 0.53 | 92 | 1015.9 |
| 20260510060043 | 56 | 3 | 0.0 | 0.0 | 0.45 | 0.50 | 0.50 | 92 | 1016.1 |
| 20260510054506 | 57 | 310 | 0.0 | 0.0 | 0.42 | 0.46 | 0.45 | 91 | 1016.1 |
| 20260510053042 | 57 | 316 | 0.0 | 3.0 | 0.32 | 0.36 | 0.36 | 91 | 1015.6 |
| 20260510051550 | 57 | 321 | 0.0 | 0.0 | 0.20 | 0.24 | 0.24 | 90 | 1015.3 |
| 20260510050032 | 57 | 300 | 0.0 | 0.0 | 0.03 | 0.05 | 0.05 | 89 | 1015.1 |
| 20260510044610 | 57 | 13 | 0.0 | 1.0 | 0.04 | 0.04 | 0.04 | 89 | 1014.7 |
| 20260510043006 | 57 | 334 | 0.0 | 0.0 | 0.04 | 0.04 | 0.04 | 88 | 1014.9 |
| 20260510041534 | 57 | 318 | 0.0 | 1.0 | 0.04 | 0.04 | 0.04 | 87 | 1014.8 |
| 20260510040048 | 58 | 300 | 0.0 | 1.0 | 0.02 | 0.02 | 0.02 | 85 | 1015.1 |
| 20260510034509 | 58 | 300 | 0.0 | 1.0 | 0.00 | 0.00 | 0.00 | 84 | 1015.1 |
| 20260510033020 | 58 | 113 | 0.0 | 0.0 | 0.00 | 0.00 | 0.00 | 83 | 1015.2 |
| 20260510031531 | 58 | 113 | 0.0 | 0.0 | 0.00 | 0.00 | 0.00 | 83 | 1015.3 |
| 20260510030008 | 59 | 113 | 0.0 | 0.0 | 0.00 | 0.00 | 0.00 | 81 | 1015.5 |
| 20260510024521 | 59 | 310 | 0.0 | 0.0 | 0.00 | 0.00 | 0.00 | 80 | 1015.5 |
| 20260510023034 | 58 | 13 | 0.0 | 1.0 | 0.00 | 0.00 | 0.00 | 81 | 1015.8 |
| 20260510021555 | 58 | 237 | 0.0 | 0.0 | 0.00 | 0.00 | 0.00 | 81 | 1016.0 |
| 20260510020101 | 59 | 102 | 0.0 | 0.0 | 0.00 | 0.00 | 0.00 | 80 | 1016.1 |
| 20260510014523 | 59 | 102 | 0.0 | 0.0 | 0.00 | 0.00 | 0.00 | 78 | 1016.1 |
| 20260510013036 | 59 | 298 | 0.0 | 0.0 | 0.00 | 0.00 | 0.00 | 79 | 1016.3 |
| 20260510011603 | 59 | 298 | 0.0 | 1.0 | 0.00 | 0.00 | 0.00 | 79 | 1015.9 |
| 20260510010014 | 58 | 354 | 0.0 | 1.0 | 0.00 | 0.00 | 0.00 | 80 | 1016.0 |
| 20260510004528 | 58 | 3 | 0.0 | 0.0 | 0.00 | 0.00 | 0.00 | 79 | 1016.0 |
| 20260510003043 | 58 | 3 | 0.0 | 0.0 | 0.00 | 0.00 | 0.00 | 79 | 1016.3 |
| 20260510001601 | 57 | 3 | 0.0 | 5.0 | 0.00 | 0.00 | 0.00 | 82 | 1016.6 |
| 20260510000126 | 55 | 322 | 0.0 | 0.0 | 0.00 | 0.00 | 0.00 | 84 | 1016.6 |
| 20260509234557 | 55 | 324 | 0.0 | 0.0 | 0.00 | 0.00 | 0.00 | 84 | 1016.6 |
| 20260509233009 | 55 | 324 | 0.0 | 0.0 | 0.00 | 0.00 | 0.00 | 84 | 1016.8 |
| 20260509231535 | 55 | 321 | 0.0 | 0.0 | 0.00 | 0.00 | 0.00 | 85 | 1016.8 |
| 20260509230105 | 55 | 321 | 0.0 | 0.0 | 0.00 | 0.00 | 0.00 | 85 | 1016.8 |
| 20260509224521 | 56 | 321 | 0.0 | 0.0 | 0.00 | 0.00 | 0.00 | 84 | 1016.6 |
| 20260509223032 | 57 | 320 | 0.0 | 0.0 | 0.00 | 0.00 | 0.00 | 83 | 1016.6 |
| 20260509221623 | 58 | 320 | 0.0 | 0.0 | 0.00 | 0.00 | 0.00 | 82 | 1016.8 |
| 20260509220015 | 58 | 320 | 0.0 | 0.0 | 0.00 | 0.00 | 0.00 | 80 | 1016.7 |
| 20260509214532 | 58 | 320 | 0.0 | 0.0 | 0.00 | 0.00 | 0.00 | 80 | 1016.7 |
| 20260509213059 | 58 | 320 | 0.0 | 0.0 | 0.00 | 0.00 | 0.00 | 81 | 1016.7 |
| 20260509211522 | 58 | 320 | 0.0 | 0.0 | 0.00 | 0.00 | 0.00 | 80 | 1016.6 |
| 20260509210024 | 59 | 320 | 0.0 | 0.0 | 0.00 | 0.00 | 0.00 | 79 | 1016.4 |
| 20260509204537 | 59 | 320 | 0.0 | 0.0 | 0.00 | 0.00 | 0.00 | 79 | 1016.5 |
| 20260509203046 | 59 | 320 | 0.0 | 0.0 | 0.00 | 0.00 | 0.00 | 79 | 1016.5 |
| 20260509201510 | 60 | 320 | 0.0 | 0.0 | 0.00 | 0.00 | 0.00 | 79 | 1016.3 |